TITAN 3C TRANSTAGE R/B, 1863

Orbit data source: Space-Track

TITAN 3C TRANSTAGE R/B, 1863 is space debris in HEO originally from a launch on Tue, 21 Dec 1965 UTC launched from the Air Force Eastern Test Range (AFETR). Debris objects in space refer to the collection of defunct objects orbiting the Earth. Examples of debris include non-operational satellites, rocket bodies, and fragments generated from explosions, collisions, or faulty payload assembly.

Loading next visibility...
Identifier
1863, 1965-108A
Orbit
HEO
Country
Flag of USUS
Related business
Manufacturer
Martin Marietta
Mission
Spacecraft
Bus & Motor
TRANSTAGE, Unknown motor
Mass
~2,050 kg wet, 1,950 kg dry
Launch date (UTC)
1965-12-21 (60 years ago)
Launch vehicle
Unknown
Launch site
Air Force Eastern Test Range (AFETR)
Object type
Payload
Rocket body
Debris
Shape & HBR
Unknown
Radar Cross Section
Large (>1 m²)

Expand to show TLE details & history
Last TLE update: 17 hours ago

TLE from 17 hours ago
0 TITAN 3C TRANSTAGE R/B
1 01863U 65108A   25341.18033519  .00010695  00000-0  34521-2 0  9991
2 01863  26.9088   1.4234 6019278 240.2739  47.2074  3.98666069360687
Epoch: 2025-12-07T04:19Z
TLE epoch observation values (Epoch: 2025-12-07T04:19:40.960Z)
Latitude
0.00002°
Longitude
-139.69184°
Altitude
8,883.682 km
Speed
5.34 km/s
True Right ascension
00h 05m 42s
True Declination
0° 00' 00"
Sunlit
Object was in daylight at epoch
Visualization orbit readout
Latitude
Unknown
Longitude
Unknown
Altitude
Unknown
Speed
Unknown
Apparent Right ascension
Unknown
Apparent Declination
Unknown
Sunlit
N/A
Visualization observer readout
Local Sidereal Time
19:33:37
Azimuth
Unknown
Elevation
Unknown
Doppler factor
Unknown
Orbital elements
Apogee altitude
20,541.202 km
Perigee altitude
311.203 km
Semi-major axis
16,804.34 km
Eccentricity
0.60193
Inclination
26.9088°
RAAN
1.4234°
Arg. of periapsis
240.2739°
True anomaly
119.72169°
Mean anomaly
47.2074°
Eccentric anomaly
81.29835°
Mean motion
0.99635 °/min
Orbital period
361.32 mins
BSTAR
0.0034521
Loading maneuver chart data...
Computing Atmospheric mass density...

Documentation

Showing up to 5 results
|